Blue Grass Airport
KLEX : now visible

Airfield :











YOU CAN JOIN US ON...

 
LOGIN :

Register | Disclaimer

   EN    FR    IT 

 









Legend :    VFR   Marginal VFR   IFR   Intensive IFR   Very Intensive IFR
Visi :
Ceiling :
>= 8 km
>= 3000ft
5 to 8 km
1000 to 3000 ft
1500m to 5 km
500 to 1000 ft
800 to 1500m
200 to 500 ft
< 800m
< 200 ft
Symbols :   Thunderstorms  Fog  Heavy snow  Heavy precipitations  Wind > 20 kt






- Airport Elevation : 979 ft
- IATA code : LEX


KLEX - Blue Grass

CURRENT METAR :
  • 311554Z 13007KT 10SM CLR 09/03 A3037 RMK AO2 SLP287 T00940033

EXPIRED METARs :
  • 311454Z 12006KT 10SM CLR 06/02 A3039 RMK AO2 SLP297 T00610022 51009

TAF KLEX
Valid from the 31 at 12:00 until the 01 at 12:00 UTC


311120Z 3112/0112 11005KT P6SM SKC
FM311600 16008KT P6SM FEW250
FM010600 20011KT P6SM BKN250
FM010800 21011G20KT P6SM BKN050
KZID FIR / North America



MET'MAP, your aeronautical weather chart ! - Copyright ORBIFLY December 2007 - Disclaimer

ORBIFLY MET'MAP TEAM :

Programming & Development : Alexandra Zaïnal
Concept & original design : Baudouin d'Aumeries
Assistance for programming : Marc-Olivier Méhu
Technical & hardware support : Manuel Goepfert

Contact : metmap@orbifly.com




SOURCES & CREDITS :

   NOAA       Earth
Advisory